Location: La Sarrasine
(44.3540°N, 4.2007°E)
Time: 02:24:19
(UTC+00:00)

Daily predictions for brighter satellites

Satellite Brightness Start Highest point End
(mag) Time Altitude Azimuth Time Altitude Azimuth Time Altitude Azimuth
Cosmos 2263 Rocket 4.5 03:01:26 19° NE 03:01:26 19° NE 03:03:17 10° NE
CZ-4C R/B 4.4 03:25:49 15° SE 03:27:16 17° ESE 03:30:42 10° ENE
ATLAS 3B R/B 4.0 03:30:35 30° NNE 03:31:55 32° NE 03:38:11 10° E
Cosmos 1943 4.4 03:36:00 37° ESE 03:36:00 37° ESE 03:39:40 10° SE
Lacrosse 4 Rocket 4.0 03:38:11 19° ESE 03:38:11 19° ESE 03:39:40 10° ESE
ALOS 3.9 03:50:38 10° NNE 03:53:16 29° NE 03:53:16 29° NE
NOSS 3-2 (C) 3.9 04:00:08 74° W 04:00:32 75° WSW 04:09:06 10° SSE
NOSS 3-4 (A) 3.4 04:00:50 75° E 04:00:50 75° E 04:06:49 10° NE
NOSS 3-4 (C) 3.4 04:00:54 75° E 04:00:54 75° E 04:06:56 10° NE
CENTAUR R/B 3.0 04:01:35 68° WNW 04:02:33 75° WSW 04:11:24 10° SSE
Milstar 3 Cent rocket 4.3 04:00:16 22° SSW 04:02:34 26° SSE 04:11:26 10° ESE
SL-4 R/B 4.2 04:15:02 18° NE 04:15:02 18° NE 04:16:18 10° NE
Cosmos 1151 Rocket 3.9 04:17:01 45° ESE 04:17:01 45° ESE 04:20:20 10° SSE
Cosmos 1782 4.4 04:16:34 29° NE 04:17:31 33° ENE 04:21:11 10° SE
ATLAS 2AS CENTAUR R/B 3.0 04:15:30 29° SSW 04:20:04 83° SE 04:27:59 10° NE
ERS-2 4.2 04:17:52 10° SSE 04:19:17 22° SE 04:19:17 22° SE
Cosmos 1680 Rocket 4.3 04:20:02 29° N 04:22:27 51° ENE 04:27:36 10° SE
ATLAS 5 CENTAUR R/B 4.3 04:31:19 13° NNE 04:31:19 13° NNE 04:31:39 10° NNE
Atlas Centaur 2 4.1 04:26:41 18° SSW 04:28:45 21° S 04:32:57 10° SE
RESURS DK-1 3.8 04:27:02 10° S 04:30:52 37° ESE 04:34:44 10° NE
Lacrosse 5 1.7 04:32:03 83° WSW 04:32:14 88° NW 04:37:20 10° NE
ATLAS CENTAUR R/B 2.8 04:32:06 27° NNE 04:32:35 28° NE 04:35:59 10° ESE
ADEOS 3.5 04:29:44 10° NNE 04:35:00 90° E 04:40:14 10° SSW
Cosmos 1328 Rocket 3.6 04:35:39 67° NNE 04:36:11 80° E 04:40:37 10° S
Cosmos 2263 Rocket 2.8 04:43:11 38° NNW 04:43:11 38° NNW 04:47:30 10° NNE
Cosmos 2112 Rocket 4.4 04:38:53 23° N 04:42:16 64° ENE 04:47:34 10° SSE
Gbstr 26 Del rocket 2.9 04:43:34 61° NE 04:43:34 61° NE 04:47:12 10° ESE
SJ 16-02 2.1 04:45:52 39° N 04:45:52 39° N 04:48:52 10° NNE
Meteor 1-4 Rocket 4.2 04:46:48 23° S 04:46:48 23° S 04:48:14 10° S
Cosmos 1898 Rocket 3.8 04:46:40 10° S 04:51:56 70° ESE 04:57:16 10° NNE
Meteor 1-26 Rocket 4.1 04:48:59 15° NNW 04:53:50 71° W 04:59:23 10° S
FALCON 9 DEB 3.6 04:56:35 48° NE 04:56:35 48° NE 04:59:02 10° NE
FALCON 9 DEB 3.7 04:56:45 45° NE 04:56:45 45° NE 04:59:09 10° NE
Cosmos 1743 Rocket 4.4 04:55:14 10° S 04:59:32 53° E 05:03:55 10° NNE
FENGYUN 3A 3.8 04:54:37 10° N 04:59:50 49° WNW 05:05:00 10° SW
Cosmos 1408 Rocket 3.4 04:57:03 10° SSW 05:01:30 77° W 05:05:59 10° N
Cosmos 2181 Rocket 3.9 04:58:54 10° NNW 05:04:59 59° W 05:10:58 10° S
COSMO-SKYMED 1 2.4 05:00:42 10° S 05:05:02 76° WSW 05:07:59 20° NNW
USA 307 4.5 05:05:08 21° NNW 05:06:00 23° N 05:09:28 10° ENE
Cosmos 1709 Rocket 4.3 05:00:20 10° SW 05:06:17 41° WNW 05:12:18 10° N
Cosmos 1937 Rocket 3.7 05:03:55 10° S 05:09:01 71° ESE 05:14:12 10° NNE
USA 308 4.5 05:11:14 21° NNW 05:12:25 23° N 05:15:53 10° ENE
Meteor 2-3 Rocket 4.0 05:08:06 10° SSW 05:13:35 46° WNW 05:19:09 10° N
Lacrosse 4 Rocket 2.4 05:14:32 29° WSW 05:14:32 29° WSW 05:18:11 10° S
CZ-4C R/B 2.0 05:11:05 18° SW 05:14:50 69° NW 05:20:46 10° NE
Cosmos 2154 Rocket 4.5 05:09:14 10° S 05:15:20 63° E 05:21:31 10° NNE
MOS 1 Rocket 4.0 05:10:45 10° SSE 05:15:27 59° ENE 05:20:29 10° N
Cosmos 1943 4.3 05:17:53 24° WSW 05:17:53 24° WSW 05:22:13 10° SSW
Cosmos 1689 Rocket 1.8 05:15:15 10° S 05:18:05 64° WSW 05:18:12 63° W
CZ-4B R/B 3.0 05:14:00 10° N 05:18:30 72° WNW 05:22:52 10° SSW
FALCON 9 DEB 3.1 05:18:32 48° NW 05:18:42 49° NNW 05:21:52 10° NE
Meteor 1-10 Rocket 4.5 05:15:49 10° N 05:21:22 71° ENE 05:26:59 10° SSE
SAR-Lupe-4 3.9 05:18:31 10° S 05:21:55 42° W 05:22:38 37° WNW
Aureole 2 Rocket 2.9 05:20:37 10° S 05:23:02 42° ESE 05:25:29 10° NE
ATLAS 3B R/B 2.7 05:17:51 18° NW 05:23:14 75° WSW 05:30:27 10° SSE
Cosmos 1862 3.3 05:22:13 10° S 05:26:17 88° E 05:30:21 10° N
Genesis I 3.1 05:24:54 18° SW 05:27:35 59° NW 05:31:25 10° NNE
YAOGAN 6 3.6 05:25:46 10° NNE 05:29:11 47° E 05:32:32 10° S
deb Chang Zheng 4 4.2 05:28:17 10° N 05:32:10 32° WNW 05:36:02 10° SW
ALOS 3.4 05:28:37 10° NNW 05:31:44 22° NW 05:31:44 22° NW
Cosmos 858 Rocket 4.4 05:28:07 10° SSW 05:33:20 74° WNW 05:38:36 10° NNE
Cosmos 990 Rocket 4.2 05:29:42 10° SW 05:34:44 46° WNW 05:39:48 10° N
Cosmos 2327 Rocket 4.4 05:28:37 10° S 05:34:44 90° E 05:40:51 10° N
Cosmos 2074 Rocket 4.0 05:30:03 10° SSW 05:36:09 60° W 05:42:18 10° N
PSLV R/B 3.8 05:34:10 10° NNE 05:38:03 84° ESE 05:41:49 10° SSW
ASTRO F (AKARI) 4.1 05:36:55 10° N 05:39:59 67° WNW 05:43:07 10° SSW
USA 305 4.4 05:38:55 15° NW 05:41:30 26° NNE 05:45:08 10° ENE
BREEZE M DEB (TANK) 3.2 05:32:48 10° SW 05:41:32 65° SSE 05:44:27 10° ENE
Meteor 1-31 Rocket 4.4 05:39:03 10° NNW 05:40:29 17° NW 05:40:29 17° NW
Cosmos 405 Rocket 2.5 05:38:27 10° SSW 05:42:07 66° WNW 05:45:51 10° N
EO 1 Delta rocket 3.9 05:41:17 10° S 05:46:19 59° W 05:50:54 10° NNW
Cosmos 1295 Rocket 4.5 05:41:36 10° S 05:47:40 89° E 05:53:48 10° N
Cosmos 1812 2.7 05:44:01 10° NNW 05:47:48 57° W 05:51:33 10° S
USA 306 4.4 05:47:01 14° NW 05:50:00 27° NNE 05:53:42 10° ENE
Cosmos 2228 Rocket 3.1 05:45:59 10° NNW 05:50:20 59° W 05:54:39 10° S
Cosmos 1515 Rocket 4.4 05:46:54 10° NNW 05:50:44 29° W 05:54:33 10° SSW
NOSS 3-4 (A) 4.4 05:48:19 15° W 05:52:07 27° NNW 05:57:33 10° NNE
NOSS 3-4 (C) 4.4 05:48:24 15° W 05:52:14 28° NNW 05:57:41 10° NNE
CENTAUR R/B 4.5 05:48:50 14° WNW 05:52:21 19° WSW 05:57:52 10° SW
SL-4 R/B 3.1 05:50:37 15° NW 05:53:05 28° N 05:56:17 10° ENE
Cosmos 1782 4.2 05:52:14 16° WNW 05:53:34 19° W 05:56:26 10° SW
Cosmos 2184 Rocket 4.3 05:47:43 10° SSW 05:53:45 46° WNW 05:59:53 10° N
Cosmos 1356 4.3 05:54:29 10° S 05:57:49 53° E 06:01:10 10° NNE
FALCON 9 DEB 4.1 05:56:59 17° WNW 05:58:44 27° NNW 06:01:32 10° NE
USA 234 3.6 05:52:27 10° NE 05:59:01 73° SE 06:05:32 10° SW
Spot 2 4.5 05:55:17 10° N 06:00:25 67° WNW 06:05:25 10° SSW
Cosmos 1844 Rocket 3.0 05:55:03 10° SW 06:00:26 45° WNW 06:05:53 10° NNE
EXPRESS MD2 4.3 06:03:36 12° WNW 06:07:13 70° NNE 06:15:23 10° ESE
Cosmos 1707 Rocket 3.7 06:03:02 10° N 06:07:23 79° E 06:11:43 10° SSE
COSMOS 2455 2.8 06:02:30 10° SW 06:08:32 80° WNW 06:14:37 10° NNE
RESURS DK-1 3.5 06:05:39 10° WSW 06:09:00 23° NW 06:12:22 10° N
MOS 1-B 4.3 06:03:32 10° NNE 06:09:22 79° WNW 06:15:10 10° SSW
BREEZE-M (TANK) 3.8 06:02:27 10° SW 06:10:12 49° SSE 06:12:54 10° ENE
ATLAS CENTAUR R/B 2.2 06:08:18 11° WNW 06:11:25 29° WSW 06:14:52 10° S
BREEZE-M DEB 3.8 06:02:57 11° WNW 06:11:47 53° SW 06:14:46 10° SE
ATLAS 2AS CENTAUR R/B 3.7 06:04:53 10° W 06:11:55 33° NW 06:18:50 10° NNE
NOAA 6 4.0 06:07:24 10° N 06:12:29 65° WNW 06:17:31 10° SSW
Cosmos 1500 Rocket 4.5 06:09:54 10° SW 06:13:31 26° WNW 06:17:11 10° NNW
Cosmos 1844 4.0 06:09:07 10° SW 06:14:22 43° WNW 06:19:41 10° NNE
H-2A R/B 3.7 06:11:38 10° N 06:14:59 28° WNW 06:18:18 10° SW
Lacrosse 5 2.9 06:11:28 10° W 06:15:48 27° NNW 06:20:08 10° NE
Atlas Centaur 2 4.2 06:13:08 10° SW 06:16:51 17° SSW 06:20:08 10° SSE
CZ-4B DEB 4.3 06:12:15 10° N 06:17:37 59° WNW 06:22:58 10° SSW
Cosmos 372 Rocket 4.0 06:12:45 10° SW 06:17:45 58° WNW 06:22:48 10° NNE
Cosmos 1437 Rocket 3.1 06:14:21 10° NNW 06:17:55 41° W 06:21:28 10° SSW
Okean O Rocket 1.7 06:16:46 10° NNE 06:21:14 87° WNW 06:25:41 10° SSW
Geosat 4.4 06:16:24 10° SE 06:21:22 64° ENE 06:26:21 10° NNW
Cosmos 1242 Rocket 3.8 06:19:27 10° N 06:22:58 44° ENE 06:26:28 10° SSE
USA 81 4.0 06:18:30 10° S 06:23:45 78° W 06:29:03 10° N
PAYLOAD B 4.2 06:18:37 10° N 06:24:05 63° WNW 06:29:30 10° SSW
SMAP 3.0 06:20:17 10° N 06:24:56 71° WNW 06:29:33 10° SSW
